Simultaneous Nadir Overpasses (SNOs) Predictions

Prediction of SNOs between METOP-B and TERRA Satellite Orbit:

Table of predicted SNOs for the next 14.0 days since TLE Epoch: 12/10/2016
Index Date (METOP-B) Time (METOP-B) Lat,Lon (METOP-B) SZA (METOP-B ) Date (TERRA) Time (TERRA) Lat,Lon (TERRA) SZA (TERRA ) Distance(km) Time Diff (sec)
1 12/11/2016 19:44:57 81.29, -69.33 107.13 12/11/2016 19:45:53 81.30, -69.33 107.16 0.75 56
2 12/11/2016 20:35:37 -81.30, 98.41 72.82 12/11/2016 20:35:20 -81.29, 98.26 72.85 2.65 17
3 12/14/2016 15:19:20 81.29, -2.91 107.27 12/14/2016 15:20:08 81.29, -2.96 107.29 0.88 48
4 12/14/2016 16:10:01 -81.29, 164.48 72.72 12/14/2016 16:09:35 -81.29, 164.63 72.72 2.44 26
5 12/17/2016 10:53:42 81.29, 63.49 107.36 12/17/2016 10:54:22 81.29, 63.33 107.35 2.71 40
6 12
